Regional Weather Roundup
Issued by NWS Pendleton, OR

Home | Current Version | Previous Version | Text Only | Print | Product List | Glossary On
Versions: 1 2 3 4 5 6 7 8 9 10 11 12 13 14 15 16 17 18 19 20 21 22 23 24 25 26 27 28 29 30 31 32 33 34 35 36 37 38 39 40 41 42 43 44 45 46 47 48 49 50
000
ASUS46 KPDT 070010
RWRPDT
PENDLETON REGIONAL WEATHER ROUNDUP
NATIONAL WEATHER SERVICE PENDLETON OREGON
500 PM PDT WED MAY 6 2015

NOTE: FAIR INDICATES FEW OR NO CLOUDS BELOW 12,000 FEET WITH NO
SIGNIFICANT WEATHER AND/OR OBSTRUCTIONS TO VISIBILITY.

# INDICATES UNOFFICIAL STATION AND DATA

WAZ520-070110-
EAST SLOPES OF WASHINGTON CASCADES

CITY            SKY/WX      TMP DP  RH  WIND    PRES   REMARKS
#BUMPING DAM    N/A         45  N/A N/A E1      N/A
#CLE ELUM HS    N/A         50  35  56  SW12    29.95
#CLE ELUM LAKE  N/A         48  36  63  W2      30.01
#CLIFFDEL 2NW   N/A         47  30  51  W7      N/A
#EASTON DOT     N/A         47  33  58  N2      N/A
#GLENWOOD       N/A         46  37  71  N6      30.03
#MANASTASH CYN  N/A         53  27  36  N2      29.94S
#NELSON         N/A         50  38  63  CALM    30.03
#NELSON 3SW     N/A         48  33  56  E1      30.23
#NILE           N/A         53  33  46  W3      29.25
#PEOH POINT     N/A         48  32  54  W5      N/A
#RONALD 2NW     N/A         51  37  59  N2      29.86S
#SNOWDEN        N/A         42  34  73  CALM    N/A
#SOUTH BLEWITT  N/A         51  35  54  CALM    N/A
#TEANAWAY 4NE   N/A         52  39  61  SW3     N/A
#TROUT LAKE 1NE N/A         47  38  71  NE10    30.04
$$

WAZ521-070110-
SIMCOE HIGHLANDS

CITY            SKY/WX      TMP DP  RH  WIND    PRES   REMARKS
#BICKLETON HS   N/A         54  22  28  N14     N/A
#SATUS PASS DOT N/A         45  31  58  CALM    N/A
#CENTERVILLE 4W N/A         51  40  66  NW15    29.73R
#CENTERVILLE 1SWN/A         49  39  68  W15     29.96  WCI 43
#GOLDENDALE     N/A         51  40  66  NW6     N/A
#GOLDENDALE 1NE N/A         52  27  38  W7      N/A
#GOLDENDALE 5WNWN/A         52  41  66  W12     29.99S
#GOODNOE HILLS  N/A         57  37  47  NW24    N/A
#LYLE 6NE       N/A         47  39  74  SW2     29.98
$$

WAZ026-070110-
KITTITAS VALLEY

CITY            SKY/WX      TMP DP  RH  WIND    PRES   REMARKS
ELLENSBURG AP   CLOUDY      57  34  42  NW20    29.96
6HR MIN TEMP:   51; 6HR MAX TEMP:   66; 6HR PCP:  0.02;

YTC-OPS AREA    LGT RAIN SH 45  34  65  W18G24  29.94  WCI 37
6HR MIN TEMP:   44; 6HR MAX TEMP:   54; 6HR PCP:  0.02;

#ELLENSBURG CWU N/A         55  33  43  N15     29.91
#ELLENSBURG 3NE N/A         53  37  54  NW7     29.96
#ELLENSBURG 1E  N/A         57  30  35  NW2     N/A
#KITTITAS 4N    N/A         54  33  45  N2      28.28S
#KITTITAS 3S    N/A         54  35  48  NW12    29.94
#THORP 6N       N/A         49  35  58  W20G35  29.99  WCI 42
$$

WAZ027-070110-
YAKIMA VALLEY

CITY            SKY/WX      TMP DP  RH  WIND    PRES   REMARKS
SUNNYSIDE AP    MOCLDY      59  30  33  N8      29.94
YAKIMA AIRPORT  MOCLDY      63  30  29  NW17G24 29.97
6HR MIN TEMP:   60; 6HR MAX TEMP:   67;

#DONALD 2NE     N/A         56  28  34  N2      28.84R
#MABTON         N/A         58  34  40  W7      29.94
#MOXEE 2E       N/A         45  25  45  CALM    29.85
#NACHES 2SW     N/A         52  36  54  W13     29.96
#TERRACE HTS    N/A         58  33  39  N9      29.93
#TOPPENISH      N/A         58  33  39  E15     29.89
#WAPATO 4NE     N/A         56  28  34  N2      28.84R
#WEST VALLEY    N/A         56  33  42  N7      29.95
#W YAKIMA       N/A         57  32  38  W7      29.97R
#WHITE SWAN 5E  N/A         57  36  45  NW14G25 29.97
#WILEY CITY 3W  N/A         56  24  29  CALM    29.97
$$

WAZ028-070110-
LOWER COLUMBIA BASIN...WASHINGTON

CITY            SKY/WX      TMP DP  RH  WIND    PRES   REMARKS
PASCO           MOCLDY      66  36  33  N18     29.93
6HR MIN TEMP:   59; 6HR MAX TEMP:   68;

RICHLAND AWOS   PTCLDY      64  32  30  N16     29.93
#BASIN CITY 5SW N/A         59  39  47  N7      29.93
#BENTON CITY    N/A         59  33  37  NE5     29.85
#CONNELL 5N     N/A         62  32  32  N12     29.90
#CONNELL 5NW    N/A         60  37  42  N8      29.88
#ELTOPIA 6NW    N/A         57  38  49  NW8     28.90
#KAHLOTUS       N/A         62  29  28  W2      29.90
#KENNEWICK 3S   N/A         63  35  35  N6      29.92
#PATERSON       N/A         58  37  45  NW7     29.92
#PROSSER DOT    N/A         61  29  30  E5      N/A
#PROSSER        N/A         59  29  32  S1      29.93
#SAGEMOOR 2W    N/A         64  37  37  NW13    29.77
#TOUCHET 2S     N/A         65  36  34  CALM    29.88
#WEST PASCO     N/A         66  38  36  N9      29.93
$$

WAZ029-070110-
FOOTHILLS OF THE BLUES...WASHINGTON

CITY            SKY/WX      TMP DP  RH  WIND    PRES   REMARKS
WALLA WALLA AP  PTCLDY      63  29  28  VRB6    29.91
6HR MIN TEMP:   56; 6HR MAX TEMP:   65;

#DAYTON SCHOOL  N/A         58  25  28  SW2     29.93
#LOWDEN 2SE     N/A         65  36  34  W3      29.86
#PLEASANT VIEW 1N/A         57  27  31  CALM    29.94
#PRESCOTT       N/A         64  35  34  CALM    29.89
#SUDBURY        N/A         64  N/A N/A CALM    N/A
#WHITMAN COLLEGEN/A         63  34  34  N3      29.94
#WAITSBURG 5S   N/A         60  34  37  NW5     30.00
#WAITSBURG 8N   N/A         58  14  17  NE2     29.76
#WALLA WALLA 5E N/A         63  38  39  N7      N/A
#WALLA WALLA U  N/A         63  32  31  CALM    29.89
#WHITMAN MISSIONN/A         65  37  35  CALM    29.91
$$

WAZ030-070110-
BLUE MOUNTAINS...WASHINGTON

CITY            SKY/WX      TMP DP  RH  WIND    PRES   REMARKS
#DIXIE 5SE      N/A         52  28  39  NW2     29.85
$$

ORZ009-041-WAZ024-070110-
COLUMBIA RIVER GORGE

CITY            SKY/WX      TMP DP  RH  WIND    PRES   REMARKS
HOOD RIVER AP   LGT RAIN    54  41  61  NE5     30.02
THE DALLES AP   PTCLDY      55  38  53  W13     30.00
6HR MIN TEMP:   55; 6HR MAX TEMP:   67; 6HR PCP:  TRACE;

#ARLINGTON AIRPON/A         56  40  55  NW8     N/A
#ARLINGTON HS   N/A         59  39  47  CALM    29.86
#CELILO DOT     N/A         58  38  47  W10     N/A
#MARYHILL       N/A         55  35  47  N1      N/A
#MOSIER 1S      N/A         47  37  68  S9      30.00
#RUFUS DOT      N/A         59  39  47  N6      N/A

$$

ORZ510-070110-
NORTH CENTRAL OREGON

CITY            SKY/WX      TMP DP  RH  WIND    PRES   REMARKS
#CHENOWITH 1W   N/A         45  39  79  W12     N/A    WCI 39
#COW CYN RST AREN/A         47  31  53  W6      N/A
#DUFUR 9E       N/A         47  35  63  W14     30.04  WCI 41
#GRASS VALLEY 1SN/A         50  33  52  W17G24  30.03
#KENT DOT       N/A         52  27  38  NW10    N/A
#MAUPIN SCHOOL  N/A         54  34  47  N12     30.00
#MORO SCHOOL    N/A         51  39  63  W15     29.98
#SHANIKO 5WSW   N/A         47  27  45  NW16    N/A    WCI 41
#SHANIKO 4NW    N/A         47  25  42  N13     29.96  WCI 41
#TYGH VALLEY 2NEN/A         53  33  46  NW15    29.98
#WAPANITIA AIRPON/A         50  31  48  N13     29.99
#WASCO DOT      N/A         56  35  45  W14     N/A
#WASCO 5NE      N/A         56  35  45  W10     29.98
$$

ORZ511-070110-
CENTRAL OREGON

CITY            SKY/WX      TMP DP  RH  WIND    PRES   REMARKS
BEND AIRPORT    LGT RAIN    39  34  82  CALM    29.99
MADRAS AIRPORT  CLOUDY      50  32  50  N16     30.00
PRINEVILLE AP   CLOUDY      50  23  34  N15     29.96
REDMOND AIRPORT CLOUDY      47  32  56  VRB6    29.97
#BEND 1SW       N/A         41  34  76  NE2     N/A
#BEND-AWBREY    N/A         40  34  79  E2      30.00S
#BEND-KIM LN    N/A         41  35  79  CALM    29.94
#CROOKED RVR RANN/A         51  30  44  E12     29.96S
#CULVER         N/A         52  30  43  N12     29.93
#LAKE BILLY CHINN/A         52  -7   8  N18     30.05S
#POWELL BUTTE 3EN/A         47  31  53  E6      N/A
#POWELL BUTTE   N/A         47  28  47  E5      29.60S
#PRINEVILLE 3N  N/A         45  32  60  N16     29.95S WCI 38
#WARM SPRINGS   N/A         55  32  41  SW9     29.95

$$


ORZ509-070110-
EAST SLOPES OF OREGON CASCADES

CITY            SKY/WX      TMP DP  RH  WIND    PRES   REMARKS
#BLUE BOX PASS  N/A         42  -9  11  NW7     N/A
#CAMP SHERMAN   N/A         52  31  44  N6      30.02
#LA PINE 4NW    N/A         42  31  65  W5      30.04
#SISTERS AIRPOR N/A         52  37  56  N7      30.17
#SISTERS ODOT   N/A         52  N/A N/A SW8     N/A
#SISTERS 3N     N/A         52  30  43  W2      29.99S
#SUNRIVER       N/A         40  34  79  S1      29.87F
#TUMALO 3W      N/A         42  33  70  E6      29.88
#WANOGA BUTTE D N/A         41  20  43  NW8     N/A

$$

ORZ044-070110-
LOWER COLUMBIA BASIN...OREGON

CITY            SKY/WX      TMP DP  RH  WIND    PRES   REMARKS
HERMISTON       PTCLDY      65  27  24  VRB3    29.91
6HR MIN TEMP:   57; 6HR MAX TEMP:   67;

#BOARDMAN SCHOOLN/A         63  31  30  NW3     29.95
#BOARDMAN 8SW   N/A         59  38  45  W15     29.94R
#ECHO 8SW       N/A         61  32  33  W3      29.93
#IONE SCHOOL    N/A         56  33  42  SE3     29.91
#IRRIGON 4NW    N/A         64  29  27  W7      N/A
#UMATILLA SCHOOLN/A         66  42  42  W6      29.95
#UMATILLA       N/A         66  32  28  CALM    29.82
$$

ORZ507-070110-
NORTHERN FOOTHILLS OF THE BLUES

CITY            SKY/WX      TMP DP  RH  WIND    PRES   REMARKS
PENDLETON AIRPT PTCLDY      60  29  31  W9      29.91
6HR MIN TEMP:   54; 6HR MAX TEMP:   61;

#ADAMS 3WNW     N/A         60  33  36  N2      29.89
#ATHENA         N/A         59  29  32  E2      29.93
#CAYUSE         N/A         59  32  36  N5      29.90
#HELIX SCHOOL   N/A         58  29  33  CALM    29.90
#HELIX 3N       N/A         58  29  33  N10     29.88
#HELIX 6SW      N/A         59  27  29  E2      29.90
#HOLDMAN 6E     N/A         60  25  26  E9      29.72
#M-F FERNDALE   N/A         68  33  27  CALM    29.89
#M-F GROVE ELEM N/A         61  29  30  N1      29.89
#M-FREEWATER 5SEN/A         61  35  38  N2      29.91
#PENDLETON DNTN N/A         64  30  28  CALM    29.90
#PDT AQUATIC CTRN/A         65  34  31  W5      29.92
#PENDLETON 5NE  N/A         57  34  42  CALM    29.87
#PDT SUNRIDGE   N/A         62  32  32  W6      29.92
#PENDLETON 7NW  N/A         59  34  39  SW6     29.88
#PILOT ROCK     N/A         58  29  33  W6      29.93
#TUTUILLA       N/A         61  34  36  W5      29.90
#UMAPINE 2E     N/A         65  37  35  W2      29.87
#WESTON SCHOOL  N/A         57  23  27  NE5     29.88

$$

ORZ508-070110-
SOUTHERN FOOTHILLS OF THE BLUES

CITY            SKY/WX      TMP DP  RH  WIND    PRES   REMARKS
LEXINGTON       PTCLDY      55  34  45  SW8     29.95S
#AJAX           N/A         53  24  32  W15     29.90
#CONDON SCHOOL  N/A         44  38  79  CALM    29.93
#CONDON 5W      N/A         37  31  79  E9      29.93
#FOSSIL SCHOOL  N/A         44  38  79  E7      29.95
#HEPPNER EOC    N/A         56  31  38  CALM    29.86
#HEPPNER 4NE    N/A         53  28  38  W5      29.93
#LEXINGTON 2SE  N/A         57  35  43  W7      29.90
#MIKKALO        N/A         56  28  34  N18     29.95
#OLEX 4N        N/A         59  36  42  CALM    29.94
#RUGGS 5NE      N/A         52  31  44  W13     30.07
#RUGGS 2SW      N/A         48  32  54  W12     29.97  WCI 43

$$

ORZ502-503-070110-
BLUE MOUNTAINS

CITY            SKY/WX      TMP DP  RH  WIND    PRES   REMARKS
#BATTLE MTN DOT N/A         47  38  71  N2      N/A
#HEPPNER 15SE   N/A         41  32  70  CALM    29.84
#PIKES PEAK     N/A         51  31  46  N5      27.99
#TOLLGATE       N/A         41  28  59  E2      29.85
#TROY SCHOOL    N/A         62  39  43  S5      29.72
#UKIAH          N/A         49  32  52  W7      29.96
#WESTON 4E      N/A         53  32  45  N1      29.87
$$

ORZ505-070110-
JOHN DAY BASIN

CITY            SKY/WX      TMP DP  RH  WIND    PRES   REMARKS
JOHN DAY        PTCLDY      46  31  56  W22G26  29.92  WCI 38
#JOHN DAY KJDY  N/A         51  31  46  SW10    30.06
#MITCHELL       N/A         39  35  85  CALM    30.12
#MT. VERNON 5SE N/A         39  33  79  S1      29.88
$$

ORZ506-070110-
OCHOCO AND JOHN DAY HIGHLANDS

CITY            SKY/WX      TMP DP  RH  WIND    PRES   REMARKS
#BUCK CREEK DOT N/A         41  41  100 N15     N/A    WCI 33
#HORSE RIDGE DO N/A         37  30  75  NE7     N/A
#KEYES SMT DOT  N/A         35  31  85  NW16    N/A    WCI 25
#PAULINA SCHOOL N/A         36  28  72  E7      29.92
#PINE MTN OBS   N/A         27  25  92  NW1     N/A
#PRAIRIE CITY   N/A         51  29  42  W5      29.88
#SENECA         N/A         39  N/A N/A N7      N/A
#SENECA 9NW     N/A         38  34  85  N1      29.91
$$

ORZ049-070110-
GRANDE RONDE VALLEY

CITY            SKY/WX      TMP DP  RH  WIND    PRES   REMARKS
LA GRANDE       CLOUDY      50  30  46  W9      29.90
#COVE           N/A         48  40  74  N3      29.91
#COVE SCHOOL    N/A         52  38  59  E1      29.88
#ELGIN 3N       N/A         43  35  73  E6      29.92R
#ELGIN 1E       N/A         52  32  46  CALM    N/A
#IMBLER SCHOOL  N/A         48  35  60  N3      29.87S
#ISLAND CITY 4N N/A         61  42  50  NW2     30.04
#LADD CYN DOT   N/A         50  35  56  NE8     N/A
#LA GRANDE ELEM N/A         49  35  58  N5      29.93S
#UNION 1S       N/A         54  35  48  N10     29.80
$$

ORZ050-070110-
WALLOWA COUNTY

CITY            SKY/WX      TMP DP  RH  WIND    PRES   REMARKS
#ENTERPRISE HS  N/A         47  35  63  N1      29.91
#IMNAHA SCHOOL  N/A         57  34  42  S7      29.87
#IMNAHA 10S     N/A         52  33  48  N2      29.87
#JOSEPH 3N      N/A         45  35  68  N5      29.93
#JOSEPH 3W      N/A         40  33  76  N1      29.76R
#LOSTINE        N/A         49  36  61  CALM    29.73
#MT HOWARD 8000 N/A         29  27  92  CALM    29.85
#PROMISE 1S     N/A         46  32  58  SW2     30.02
#SHEEP RDG 7000 N/A         28  26  92  CALM    29.97
#WALLOWA SCHOOL N/A         49  37  63  CALM    30.85



$$



USA.gov is the U.S. government's official web portal to all federal, state and local government web resources and services.